This demonstration page uses our WeatherBlox Daily Observations layout. Learn more.

38.88101, -77.10428

Hourly Observations for February 18, 2018

Temp ( °F °C ) Dew Point ( °F °C ) Humidity (%) Winds ( mph kmh ) Pressure ( in mb ) Visibility ( mi km ) Precip ( " mm )
12:52 am 00:52 Cloudy 36 2.2 35 1.7 97 97 SW 7 11 30.05 1018 9 14.48406 0 0
1:52 am 01:52 Cloudy with Light Rain 37 2.8 34 1.1 89 89 WSW 9 15 30.06 1018 10 16.0934 0 0.0254
2:06 am 02:06 Cloudy 37 2.8 34 1.1 89 89 W 8 13 30.09 1019 10 16.0934 0 0.0254
2:13 am 02:13 Cloudy with Light Rain 37 2.8 34 1.1 89 89 W 9 15 30.09 1019 10 16.0934 0 0.0254
2:52 am 02:52 Cloudy 36 2.2 33 0.6 89 89 WSW 9 15 30.09 1019 10 16.0934 0 0.0254
3:24 am 03:24 Mostly Cloudy 35 1.7 33 0.6 93 93 SW 10 17 30.09 1019 10 16.0934 0 0
3:52 am 03:52 Cloudy 35 1.7 33 0.6 93 93 SW 6 9 30.11 1020 10 16.0934 0 0
4:17 am 04:17 Cloudy 35 1.7 33 0.6 93 93 SSW 8 13 30.15 1021 10 16.0934 0 0
4:39 am 04:39 Mostly Cloudy 35 1.7 33 0.6 93 93 SSW 7 11 30.15 1021 10 16.0934 0 0
4:52 am 04:52 Partly Cloudy 35 1.7 33 0.6 93 93 S 3 6 30.15 1021 10 16.0934 0 0
5:52 am 05:52 Partly Cloudy 34 1.1 33 0.6 97 97 SW 5 7 30.2 1023 10 16.0934 0 0
6:52 am 06:52 Partly Cloudy 34 1.1 32 0 92 92 SW 7 11 30.25 1024 7 11.26538 0 0
7:52 am 07:52 Partly Cloudy 36 2.2 34 1.1 93 93 WSW 5 7 30.29 1026 10 16.0934 0 0
8:52 am 08:52 Cloudy 37 2.8 35 1.7 93 93 SSW 5 7 30.35 1028 10 16.0934 0 0
9:52 am 09:52 Cloudy 40 4.4 36 2.2 86 86 SW 5 7 30.39 1029 10 16.0934 0 0
10:52 am 10:52 Partly Cloudy 47 8.3 35 1.7 63 63 NNW 9 15 30.4 1030 10 16.0934 0 0
11:52 am 11:52 Partly Cloudy 47 8.3 31 -0.6 54 54 NNW 8 13 30.42 1030 10 16.0934 0 0
12:52 pm 12:52 Partly Cloudy 47 8.3 29 -1.7 50 50 WNW 8 13 30.43 1031 10 16.0934 0 0
1:52 pm 13:52 Mostly Sunny 51 10.6 31 -0.6 46 46 N 8 13 30.4 1030 10 16.0934 0 0
2:52 pm 14:52 Partly Cloudy 50 10 30 -1.1 46 46 ENE 3 6 30.4 1030 10 16.0934 0 0
3:52 pm 15:52 Mostly Cloudy 51 10.6 30 -1.1 44 44 ENE 5 7 30.42 1030 10 16.0934 0 0
4:52 pm 16:52 Mostly Cloudy 50 10 33 0.6 52 52 ENE 5 7 30.42 1030 10 16.0934 0 0
5:52 pm 17:52 Mostly Cloudy 47 8.3 31 -0.6 54 54 NNE 5 7 30.43 1030 10 16.0934 0 0
6:52 pm 18:52 Mostly Cloudy 46 7.8 33 0.6 61 61 ENE 5 7 30.45 1031 10 16.0934 0 0
7:52 pm 19:52 Mostly Cloudy 43 6.1 33 0.6 68 68 ESE 9 15 30.45 1031 10 16.0934 0 0
8:52 pm 20:52 Mostly Cloudy 43 6.1 32 0 65 65 SE 6 9 30.47 1032 10 16.0934 0 0
9:52 pm 21:52 Mostly Cloudy 41 5 32 0 70 70 S 5 7 30.49 1033 10 16.0934 0 0
10:52 pm 22:52 Mostly Cloudy 41 5 32 0 70 70 SSE 5 7 30.5 1033 10 16.0934 0 0
11:52 pm 23:52 Mostly Cloudy 41 5 32 0 70 70 SSE 9 15 30.5 1033 10 16.0934 0 0

Powered by AerisWeather